SCP
0 0 0 1 1 1 0 0 1 2 2 2 2 3 2 3 5 6 7 10 13 10 7 8 9 9 9 7 6 6 6 6 5 5 4 3 3 2 2 2 2 2 3 3
1 1 1 1 1 1 1 1 1 2 2 2 2 2 2 3 6 7 7 11 15 10 6 7 7 7 7 7 6 6 6 6 5 5 4 4 3 3 2 2 2 2 2 3
0 0 1 1 1 1 1 1 2 2 2 2 1 1 1 3 6 7 7 8 10 9 7 6 6 6 7 8 8 7 7 6 5 5 5 4 4 3 3 2 2 2 2 2
0 0 0 1 1 1 1 1 2 2 2 2 2 2 3 4 6 7 6 6 5 6 7 7 6 7 8 9 9 8 7 6 5 5 4 4 5 4 3 3 2 2 2 2
0 0 0 0 0 0 1 2 2 2 3 3 4 4 5 5 6 7 6 5 5 6 6 8 8 9 9 10 9 8 7 6 5 5 4 4 4 5 4 4 3 2 2 2
0 0 0 0 0 0 1 2 2 3 3 4 4 5 5 4 4 6 6 5 4 5 5 7 10 12 11 11 10 9 7 6 6 5 4 4 4 5 6 5 4 3 2 2
0 0 1 1 0 0 1 1 2 3 3 3 4 4 4 3 3 5 5 4 3 3 4 6 9 13 12 10 9 8 8 7 6 5 4 4 5 6 7 6 5 4 3 3
0 1 1 1 0 0 1 1 2 3 3 3 4 5 5 4 4 4 4 3 2 2 2 3 7 11 10 7 6 7 8 8 7 6 5 5 6 7 7 7 7 6 5 4
1 1 1 1 1 1 1 2 3 4 4 4 5 6 6 5 4 4 4 3 2 2 2 2 4 6 5 4 4 6 8 9 8 7 6 6 6 7 7 7 7 7 7 6
1 1 1 1 2 2 3 3 4 4 4 4 5 5 5 4 4 5 5 4 3 2 2 2 2 3 3 2 4 7 9 10 9 9 7 6 6 6 7 7 7 7 7 7
1 1 1 2 3 4 5 5 4 4 3 3 4 4 4 3 4 6 6 5 3 2 2 2 2 2 2 2 4 6 9 10 11 10 9 8 6 6 6 6 5 5 6 6
1 1 1 2 3 4 4 4 3 3 2 2 3 4 4 3 5 6 7 5 3 2 1 1 1 1 2 2 4 6 8 10 12 12 11 9 8 6 5 4 3 3 3 4
0 0 1 2 3 2 2 2 2 1 1 2 3 4 3 3 4 5 6 4 2 1 1 0 0 0 1 3 4 6 7 9 11 12 12 10 8 7 5 3 2 1 1 1
0 0 1 1 1 1 1 1 1 1 1 2 4 4 3 2 2 3 3 2 1 0 0 0 0 0 1 2 4 5 6 7 9 11 11 10 8 6 5 4 2 1 0 0
0 0 1 1 0 0 0 0 0 1 1 3 3 3 2 2 2 1 1 1 0 0 0 0 0 0 0 1 3 4 5 6 7 8 9 8 7 6 5 4 3 1 0 0
0 0 1 1 0 0 0 0 0 1 1 2 2 2 1 1 1 0 0 0 0 0 0 0 0 0 0 1 2 3 4 4 5 6 8 8 6 5 5 4 3 2 1 0
0 0 1 1 0 0 0 0 0 0 1 1 1 1 1 0 0 0 0 0 0 0 0 0 0 0 0 0 1 2 3 3 4 6 7 7 6 5 4 3 3 2 1 0
0 0 0 0 0 0 0 0 0 0 0 1 0 0 0 0 0 0 0 0 0 0 0 0 0 0 0 0 0 1 3 4 4 6 7 7 6 4 3 3 2 2 1 0
0 0 0 0 0 0 0 0 0 0 0 0 0 0 0 0 0 0 0 0 0 0 0 0 0 0 0 0 0 1 3 4 5 6 7 7 5 4 3 2 2 2 1 0
0 0 0 0 0 0 0 0 0 0 0 0 0 0 0 0 0 0 0 0 0 0 0 0 0 0 0 0 0 1 2 4 6 7 7 6 5 3 2 2 2 1 0 0
0 0 0 0 1 1 1 1 1 1 0 0 0 0 0 0 0 0 0 0 0 0 0 0 0 0 0 0 0 1 2 4 6 7 7 5 4 3 2 2 1 1 0 0
0 0 0 1 1 1 1 1 1 1 0 0 0 0 0 0 0 0 0 0 0 0 0 0 0 0 0 0 1 1 2 4 5 6 5 4 3 3 2 1 1 0 0 0
0 0 0 1 1 1 1 1 1 0 0 0 0 0 0 0 0 0 0 0 0 0 0 0 0 0 0 0 1 1 2 3 4 4 4 4 3 2 2 1 0 0 0 0
0 0 1 1 1 0 0 0 0 0 0 0 0 0 0 0 0 0 0 0 0 0 0 0 0 0 1 1 2 2 2 2 2 2 2 2 2 1 1 0 0 0 0 0
1 1 1 1 0 0 0 0 0 0 0 0 0 0 0 0 0 0 0 0 0 0 0 0 0 1 1 2 2 1 1 1 1 1 1 1 1 1 0 0 0 0 0 0
1 1 1 0 0 0 0 0 0 0 0 0 0 0 0 0 0 0 0 0 0 0 0 0 1 1 1 1 1 1 0 0 0 0 0 0 0 0 0 0 0 0 0 0
1 1 0 0 0 0 0 0 0 0 0 0 0 0 0 0 0 0 0 0 0 0 1 1 1 2 1 1 0 0 0 0 0 0 0 0 0 0 0 0 0 0 0 0
Wind_Speed
4 3 2 2 3 1 2 5 6 7 6 7 6 6 5 5 5 6 6 6 6 6 5 5 5 4 4 4 4 5 5 4 3 2 1 1 1 1 1 1 1 0 1 1
1 1 1 2 3 2 2 2 5 6 3 4 5 5 5 6 7 6 5 5 5 6 6 6 6 5 5 5 5 5 5 3 2 2 2 2 1 1 1 1 1 1 1 1
2 3 3 3 3 2 1 2 6 6 6 5 5 6 6 6 7 7 6 5 5 5 5 5 5 5 5 5 5 5 4 3 3 2 2 2 1 1 1 0 1 1 0 0
1 2 3 6 2 3 4 1 2 5 6 7 7 6 4 5 7 6 6 5 5 5 4 3 3 4 4 5 5 5 4 3 3 3 2 1 1 1 0 0 1 0 1 1
3 2 4 4 2 1 3 1 1 5 6 5 6 5 2 1 4 5 5 5 5 5 5 5 4 5 6 5 4 4 4 3 3 3 3 2 1 1 0 0 0 1 1 1
3 3 5 5 4 1 4 1 1 5 6 6 5 3 3 2 4 5 5 4 4 4 4 5 4 5 6 5 4 3 3 3 3 3 3 2 2 1 1 1 1 1 1 2
3 3 4 4 4 2 3 6 2 4 5 5 4 5 5 5 5 5 5 5 5 5 4 3 4 5 5 4 3 3 3 3 3 2 2 2 1 1 0 1 1 1 2 2
3 3 6 4 2 2 4 1 3 3 3 5 5 5 6 6 6 6 5 5 5 5 3 2 3 5 5 3 3 2 3 2 2 2 2 1 1 1 1 0 1 2 2 3
5 5 4 1 2 2 3 3 2 3 3 5 5 5 4 5 5 5 5 4 3 4 4 2 3 4 4 3 3 3 3 2 1 1 0 1 1 1 1 0 0 1 1 2
1 1 1 1 2 2 3 3 3 4 4 5 5 5 4 4 3 3 4 4 3 4 4 2 2 3 3 3 3 3 3 1 1 1 0 1 1 1 1 1 1 1 1 2
1 1 2 3 2 2 3 3 4 4 4 4 5 4 5 5 5 4 3 3 4 5 4 3 2 2 2 2 3 3 2 2 1 1 1 1 1 2 2 3 4 3 3 2
4 4 3 2 0 2 3 2 3 4 3 2 3 4 4 4 4 4 4 4 4 4 4 3 3 2 1 2 3 4 2 2 1 1 1 1 1 2 3 3 4 4 5 4
3 2 3 2 1 1 2 1 2 3 3 2 2 3 4 3 3 3 4 4 5 5 4 4 3 3 2 2 3 4 3 3 2 2 2 2 1 2 2 3 2 3 4 4
2 2 2 2 2 1 1 2 2 2 2 2 2 2 3 3 3 3 3 4 4 4 4 4 4 3 3 3 3 3 3 3 3 3 3 2 2 2 2 2 2 3 3 4
1 2 3 2 1 1 1 2 2 1 1 2 2 2 3 3 3 3 3 4 4 4 4 4 4 3 3 3 3 4 3 3 3 2 2 2 2 2 2 3 2 2 2 3
2 2 2 3 2 1 1 1 2 2 2 3 3 3 3 3 3 2 2 4 4 4 4 4 4 4 3 3 3 3 3 4 3 2 2 2 2 2 2 2 2 2 3 3
3 3 3 2 3 3 3 3 3 3 4 4 4 4 3 3 3 2 3 3 4 4 4 4 4 4 3 2 3 3 3 3 4 2 2 3 2 2 3 3 3 3 3 4
3 4 3 3 3 2 2 2 2 3 4 4 3 3 3 4 4 4 4 3 3 2 3 4 4 3 3 3 3 3 3 3 3 3 3 2 3 2 2 3 3 3 3 3
2 2 2 1 1 1 1 1 1 2 2 2 3 3 4 4 3 3 3 3 4 3 4 3 4 4 3 4 3 2 3 3 2 2 2 3 3 2 3 3 3 3 3 3
2 2 2 2 2 2 1 1 1 2 1 1 2 2 2 1 2 2 3 3 3 3 3 3 3 3 3 3 3 2 3 3 3 2 2 2 2 3 3 3 3 3 3 3
2 3 3 3 2 2 2 2 2 2 1 2 3 2 2 2 2 2 2 2 3 3 2 3 3 2 2 2 2 2 2 2 3 3 3 3 3 4 4 4 4 3 3 3
2 2 3 2 2 2 2 2 2 2 2 1 2 2 2 2 2 2 2 3 3 3 2 2 3 3 3 2 2 2 2 2 2 2 2 3 3 3 3 3 3 3 3 3
1 1 1 1 2 1 2 2 1 1 1 1 1 1 1 2 2 2 2 2 2 3 2 3 4 4 4 2 2 2 2 2 2 2 3 3 3 3 3 3 3 3 2 2
1 0 0 1 2 3 3 2 2 1 1 0 1 1 1 1 1 1 2 2 3 3 2 3 5 5 4 2 2 2 2 3 3 3 3 2 2 2 2 2 2 2 2 2
1 1 2 2 2 1 1 2 2 2 1 1 1 1 0 1 1 2 1 2 2 2 1 2 4 3 2 2 2 3 3 3 3 2 2 2 2 1 1 2 2 2 2 2
2 1 0 0 0 0 1 1 1 1 1 0 1 1 0 0 0 1 1 1 1 1 1 1 1 2 2 2 2 2 2 2 2 2 2 2 2 2 2 2 3 2 2 2
1 1 1 2 2 1 1 1 1 1 1 0 1 1 0 0 0 0 1 1 0 1 1 1 1 1 1 1 1 1 1 1 1 1 2 2 2 2 2 3 2 2 2 2
Wind_Direction
218 235 235 263 276 258 169 187 183 191 181 199 189 169 157 141 132 131 136 138 148 152 151 145 142 143 138 135 135 141 138 143 151 160 158 129 113 138 130 116 124 126 85 48
308 310 339 302 297 273 212 165 150 140 184 205 170 148 136 130 126 131 142 144 152 159 158 157 154 151 139 142 141 131 129 136 134 132 130 127 120 114 101 75 66 67 62 70
258 300 10 296 259 209 158 137 152 178 197 163 148 151 157 152 140 140 140 148 162 160 162 158 156 151 149 152 143 136 138 140 136 135 128 142 143 99 119 125 88 66 14 61
170 46 228 246 240 137 119 101 142 156 163 165 164 159 154 154 147 146 145 149 157 152 146 141 145 138 132 133 135 137 140 144 146 140 133 128 109 102 71 109 132 225 257 231
134 182 256 288 288 178 128 313 110 138 147 144 129 99 59 150 144 146 148 150 153 149 145 134 132 134 125 125 129 129 142 157 160 146 135 131 135 186 215 154 316 271 247 221
144 170 222 251 275 249 110 246 248 142 150 156 132 137 217 186 132 121 120 124 126 128 126 134 143 132 124 132 139 154 170 170 164 155 153 166 186 208 225 205 234 263 275 249
164 196 249 269 303 25 166 221 201 143 144 148 164 182 173 147 131 127 126 125 121 121 124 144 145 129 125 130 158 181 166 159 161 158 162 171 178 210 228 261 281 292 298 288
160 181 245 293 24 157 207 173 120 125 134 136 137 131 128 130 133 130 124 124 127 130 130 136 134 137 137 156 185 159 139 145 158 165 181 166 164 258 282 312 315 304 309 310
177 203 238 265 153 174 137 117 107 103 109 121 126 131 130 129 134 137 134 133 137 141 141 152 146 142 158 184 167 138 130 147 164 161 191 176 187 230 287 331 277 291 282 288
102 272 274 55 82 87 95 108 115 113 113 118 133 142 138 135 136 134 140 146 147 141 146 173 169 152 173 181 155 136 139 155 170 158 248 275 237 220 212 226 232 253 252 260
136 268 27 26 53 80 71 77 89 94 95 111 125 140 150 152 156 161 158 154 155 160 168 176 166 167 174 165 150 143 152 172 194 205 214 245 259 244 228 229 215 213 231 231
208 215 174 223 245 102 97 103 119 108 91 88 127 147 151 160 164 160 159 156 152 158 161 169 170 178 188 167 160 161 168 182 190 202 228 239 257 296 289 252 252 242 234 231
190 189 164 173 150 91 128 130 128 125 134 146 145 151 151 150 156 150 151 159 162 165 167 172 172 175 195 188 172 174 184 192 194 202 219 228 234 241 282 316 307 274 260 255
159 124 132 160 172 155 144 134 123 115 124 151 158 149 148 149 147 153 169 178 170 160 164 171 171 192 210 191 183 189 194 202 204 211 218 225 232 234 225 231 274 292 281 264
188 167 178 165 136 105 92 94 96 105 146 168 170 165 168 170 180 190 193 175 158 157 167 170 174 208 211 192 192 199 200 205 205 208 220 231 240 242 232 227 234 258 288 298
183 145 139 135 152 164 173 160 166 197 195 185 184 194 197 192 191 193 190 172 161 175 185 178 189 213 209 197 203 209 208 212 212 210 227 247 252 247 240 230 228 235 249 255
150 161 166 183 196 205 212 209 200 202 203 197 200 199 194 188 184 194 201 189 179 188 189 184 199 206 195 193 205 214 208 209 216 220 224 233 242 245 243 232 229 237 246 246
163 177 185 192 209 224 244 238 211 198 201 206 199 183 186 194 203 210 202 180 165 180 208 201 197 192 198 210 214 215 209 207 203 217 230 237 244 243 245 246 242 246 254 255
120 140 161 166 172 180 221 228 202 180 183 177 168 177 191 202 205 197 175 165 177 206 231 213 205 205 214 229 229 217 215 216 215 222 229 248 262 259 254 252 250 243 235 235
59 67 76 72 62 66 60 80 90 77 70 92 113 117 129 156 169 163 152 177 210 218 227 214 205 214 222 232 225 213 213 213 216 223 229 232 247 257 254 249 247 246 241 234
45 49 55 61 62 57 64 84 96 88 74 95 122 140 157 173 182 170 156 223 257 235 216 212 208 219 217 218 219 218 217 216 218 223 230 237 245 251 251 249 251 249 240 230
19 36 47 50 61 45 37 59 94 109 108 103 118 141 158 189 201 202 212 222 240 238 222 215 215 217 222 221 221 225 223 221 227 240 250 247 243 245 246 246 246 247 238 228
73 55 50 54 67 47 24 27 40 82 126 151 158 166 185 215 207 192 246 259 244 233 223 223 221 221 229 219 219 222 223 232 243 249 251 251 249 248 245 244 241 236 232 231
88 303 354 56 59 51 27 359 3 14 23 30 176 184 183 199 274 249 228 238 246 249 247 236 225 224 220 216 214 213 215 230 237 246 248 245 241 234 236 246 252 251 243 236
89 65 42 50 47 24 358 1 14 18 43 20 331 322 215 181 209 247 246 245 255 260 276 247 219 220 214 215 218 221 227 236 234 225 234 250 249 243 240 238 236 241 239 229
58 69 86 129 166 254 326 4 6 339 341 346 320 330 6 116 179 199 222 235 215 196 223 245 237 224 210 222 232 230 231 232 226 213 225 236 240 243 250 253 253 245 237 231
50 50 48 26 9 13 41 35 2 322 291 206 289 301 316 0 54 19 304 287 263 253 252 253 241 210 206 219 230 234 227 227 220 216 229 231 234 247 251 249 246 248 248 236